Location: La Tine
(46.4708°N, 7.0525°E)
Time: 00:41:45
(UTC+00:00)

Meteor 1-24 Rocket - Pass Details

Date: 24 January 2021
Orbit: 791 x 926 km, 81.3° (Epoch: 03 March)

Event Time Altitude Azimuth Distance (km) Brightness Sun altitude
Rises 17:01:12 0° 196° (SSW) 3,301 7.4 -6.6°
Reaches altitude 10° 17:03:36 10° 199° (SSW) 2,365 6.6 -7.0°
Maximum altitude 17:08:53 68° 282° (WNW) 852 4.0 -7.9°
Drops below altitude 10° 17:14:12 10° 7° (N) 2,370 5.8 -8.7°
Sets 17:16:36 0° 10° (N) 3,310 6.5 -9.1°
